Notices

What's New in latest Release from April 7th, 2021:

- Updated Glossary, including Speed of Maximum Gust, and Total Hourly Precipitation

- Updated national and regional climate services offices contacts and prices information

- Addition of station inventory lists for 1981-2010, 1971-2000, and 1961-1990 Normals.

If you haven't already, please take our survey and provide feedback about our website: https://eccc.sondage-survey.ca/f/LanguageSelection.aspx?s=442ca660-fcf1-47c0-95a9-59707d6fd709

Hourly Data Report for December 04, 2004

SHERBROOKE A
QUEBEC

45°26'00.000" N
71°41'00.000" W
241.40 m
7028124
71610
YSC

Download Data

Hourly Data (December 2004)
Hourly Data Report for December 4, 2004
TIME
LST
Temp Definition
°C
Dew Point Definition
°C
Rel Hum Definition
%
Precip. Amount Definition
mm

Wind Dir Definition
10's deg

Wind Spd Definition
km/h
Visibility Definition
km
Stn Press Definition
kPa
Hmdx Definition


Wind Chill Definition


Weather Definition


00:00 -9.5 -11.9 83   26 9 8.0 98.49   -14 Snow
01:00 -10.0 -12.6 81   30 11 12.9 98.54   -16 Snow
02:00 -10.2 -12.4 84   27 7 3.1 98.62   -14 Snow
03:00 -10.7 -12.7 85     0 2.9 98.63     Snow
04:00 -12.6 -14.6 85   14 6 6.4 98.61   -17 Snow
05:00 -12.9 -15.6 80   16 6 5.6 98.59   -17 Snow
06:00 -12.4 -14.3 86   22 6 15.0 98.66   -16  
07:00 -14.4 -16.5 84   17 6 9.7 98.64   -19  
08:00 -15.1 -17.2 84   12 4 24.1 98.66   -18 Mainly Clear
09:00 -11.1 -13.0 86   10 4 24.1 98.64   -14 Mainly Clear
10:00 -8.1 -11.5 76   16 9 24.1 98.58   -13 Mainly Clear
11:00 -6.2 -10.7 70   20 11 24.1 98.46   -11 Mainly Clear
12:00 -5.1 -10.5 66   18 19 24.1 98.31   -12 Mostly Cloudy
13:00 -3.8 -9.2 66   18 13 24.1 98.23   -9 Mostly Cloudy
14:00 -3.1 -9.8 60   18 11 24.1 98.11   -7 Mainly Clear
15:00 -3.4 -10.2 59   15 6 24.1 98.00   -6 Mostly Cloudy
16:00 -3.5 -8.7 67   18 6 24.1 97.94   -6 Mostly Cloudy
17:00 -3.1 -9.9 59     0 24.1 97.88     Mostly Cloudy
18:00 -2.6 -9.3 60   16 13 15.0 97.82   -7  
19:00 -1.7 -8.5 60   18 17 15.0 97.75   -7  
20:00 -0.5 -8.1 56   20 17 15.0 97.69   -5  
21:00 -2.0 -4.8 81   20 20 2.7 97.66   -8 Snow
22:00 -1.8 -4.3 83   18 17 3.7 97.60   -7 Snow
23:00 -1.3 -4.0 82   20 9 15.0 97.55   -5 Snow

Notes on Data Quality.

Legend

  • E = Estimated
  • M = Missing
  • NA = Not Available*
  • [empty] = Indicates an unobserved value
Date modified: